This demonstration page uses our WeatherBlox Daily Observations layout. Learn more.

Left ArrowRight Arrow

40.92945, -100.16068

Hourly Observations for July 11, 2019

Temp ( °F °C ) Dew Point ( °F °C ) Humidity (%) Winds ( mph kmh ) Pressure ( in mb ) Visibility ( mi km ) Precip ( " mm )
12:15 am 00:15 Clear 64 17.8 62 16.7 93 93 N N/A 30.17 1022 10 16 N/A
12:35 am 00:35 Clear 63 17.1 62 16.5 96 96 N N/A 30.19 1022 10 16 N/A
12:55 am 00:55 Clear 62 16.9 62 16.5 98 98 N N/A 30.18 1022 10 16 N/A
1:15 am 01:15 Clear 62 16.5 61 16.2 98 98 N N/A 30.18 1022 10 16 N/A
1:35 am 01:35 Clear 62 16.5 61 16.1 98 98 N 3 6 30.18 1022 10 16 N/A
1:55 am 01:55 Clear 61 16.2 61 16.2 100 100 N N/A 30.18 1022 10 16 N/A
2:15 am 02:15 Clear 61 16.1 60 15.7 97 97 N N/A 30.19 1022 10 16 N/A
2:35 am 02:35 Clear 61 16.2 61 16 99 99 N N/A 30.17 1022 10 16 N/A
2:55 am 02:55 Clear 61 15.9 60 15.5 97 97 N N/A 30.17 1022 10 16 N/A
3:15 am 03:15 Clear 60 15.7 60 15.5 99 99 N N/A 30.17 1022 10 16 N/A
3:35 am 03:35 Clear 60 15.6 60 15.5 99 99 N N/A 30.16 1021 10 16 N/A
3:55 am 03:55 Clear 60 15.3 60 15.3 100 100 N N/A 30.16 1021 7 11 N/A
4:15 am 04:15 Clear 60 15.5 60 15.5 100 100 N N/A 30.15 1021 10 16 N/A
4:35 am 04:35 Clear with Mist and Fog 59 15 59 15 100 100 N N/A 30.16 1021 5 8 N/A
4:55 am 04:55 Clear 58 14.5 58 14.5 100 100 N N/A 30.16 1021 7 11 N/A
5:15 am 05:15 Clear with Mist and Fog 59 14.8 59 14.8 100 100 N N/A 30.16 1021 4 6 N/A
5:35 am 05:35 Clear 57 14.1 57 14.1 100 100 N N/A 30.16 1021 10 16 N/A
5:55 am 05:55 Clear 57 14.1 57 14.1 100 100 N N/A 30.16 1021 10 16 N/A
6:15 am 06:15 Clear 58 14.2 57 14.1 99 99 W 3 6 30.16 1021 10 16 N/A
6:35 am 06:35 Sunny 58 14.3 58 14.3 100 100 WNW 3 6 30.16 1021 7 11 N/A
6:55 am 06:55 Sunny 59 14.9 59 14.9 100 100 N N/A 30.16 1021 7 11 N/A
7:15 am 07:15 Sunny 60 15.7 60 15.7 100 100 N N/A 30.15 1021 7 11 N/A
7:35 am 07:35 Sunny 62 16.6 61 16.3 98 98 N N/A 30.15 1021 7 11 N/A
7:55 am 07:55 Sunny 64 17.7 62 16.9 95 95 N N/A 30.14 1021 10 16 N/A
8:15 am 08:15 Sunny 65 18.6 63 17.3 92 92 SE 3 6 30.13 1020 10 16 N/A
8:35 am 08:35 Sunny 68 19.9 63 17.4 86 86 SSE 7 11 30.12 1020 10 16 N/A
8:55 am 08:55 Sunny 70 21.1 64 17.8 82 82 S 6 9 30.12 1020 10 16 N/A
9:15 am 09:15 Sunny 72 22 65 18.1 79 79 S 6 9 30.10 1019 10 16 N/A
9:35 am 09:35 Sunny 73 22.7 64 17.5 73 73 S 7 11 30.10 1019 10 16 N/A
9:55 am 09:55 Sunny 74 23.1 63 17.4 70 70 S 8 13 30.09 1019 10 16 N/A
10:15 am 10:15 Sunny 74 23.6 63 17 67 67 S 9 15 30.08 1019 10 16 N/A
10:35 am 10:35 Sunny 76 24.2 64 17.5 66 66 S 9 15 30.08 1018 10 16 N/A
10:55 am 10:55 Sunny 76 24.6 64 17.5 65 65 S 13 20 30.06 1018 10 16 N/A
11:15 am 11:15 Sunny 76 24.7 64 17.7 65 65 S 8 13 30.06 1018 10 16 N/A
11:35 am 11:35 Sunny 77 25.1 63 17.4 62 62 SW 10 17 30.05 1018 10 16 N/A
11:55 am 11:55 Sunny 78 25.4 64 17.7 62 62 S 7 11 30.05 1017 10 16 N/A
12:15 pm 12:15 Sunny 78 25.5 64 17.5 61 61 SW 9 15 30.04 1017 10 16 N/A
12:35 pm 12:35 Sunny 79 26 65 18.1 62 62 S 8 13 30.03 1017 10 16 N/A
12:55 pm 12:55 Sunny 79 26.2 65 18.2 61 61 SSW 9 15 30.01 1016 10 16 N/A
1:15 pm 13:15 Sunny 79 26.3 64 17.6 59 59 SSE 8 13 30.01 1016 10 16 N/A
1:35 pm 13:35 Sunny 80 26.6 64 17.9 59 59 S 10 17 29.99 1015 10 16 N/A
1:55 pm 13:55 Sunny 81 27.2 66 19.1 61 61 S 9 15 29.98 1015 10 16 N/A
2:15 pm 14:15 Sunny 81 27.2 66 18.8 60 60 S 10 17 29.97 1015 10 16 N/A
2:35 pm 14:35 Sunny 82 27.6 65 18.6 58 58 S 7 11 29.96 1014 10 16 N/A
2:55 pm 14:55 Sunny 82 27.7 67 19.3 60 60 S 12 19 29.95 1014 10 16 N/A
3:15 pm 15:15 Sunny 82 27.8 67 19.3 60 60 SSE 13 20 29.95 1014 10 16 N/A
3:35 pm 15:35 Sunny 83 28.1 67 19.7 60 60 S 9 15 29.93 1014 10 16 N/A
3:55 pm 15:55 Sunny 83 28.1 67 19.5 60 60 S 13 20 29.92 1013 10 16 N/A
4:15 pm 16:15 Sunny 83 28.1 67 19.7 60 60 S 10 17 29.91 1013 10 16 N/A
4:35 pm 16:35 Sunny 83 28.3 68 19.9 60 60 S 12 19 29.90 1013 10 16 N/A
4:55 pm 16:55 Sunny 83 28.5 68 20 60 60 S 13 20 29.90 1013 10 16 N/A
5:15 pm 17:15 Sunny 83 28.6 68 20.1 60 60 S 10 17 29.90 1013 10 16 N/A
5:35 pm 17:35 Sunny 83 28.6 68 20 60 60 S 10 17 29.89 1012 10 16 N/A
5:55 pm 17:55 Sunny 83 28.6 68 20 60 60 SSE 13 20 29.89 1012 10 16 N/A
6:15 pm 18:15 Sunny 83 28.5 68 20.2 61 61 SSE 13 20 29.88 1012 10 16 N/A
6:35 pm 18:35 Sunny 83 28.2 67 19.7 60 60 SSE 13 20 29.88 1012 10 16 N/A
6:55 pm 18:55 Sunny 82 28 67 19.6 60 60 SSE 13 20 29.88 1012 10 16 N/A
7:15 pm 19:15 Sunny 82 27.7 68 19.8 62 62 SSE 10 17 29.89 1012 10 16 N/A
7:35 pm 19:35 Sunny 81 27.3 67 19.5 62 62 SSE 12 19 29.88 1012 10 16 N/A
7:55 pm 19:55 Sunny 80 26.8 67 19.6 65 65 SSE 12 19 29.88 1012 10 16 N/A
8:15 pm 20:15 Sunny 79 26.3 68 20 68 68 SE 9 15 29.89 1012 10 16 N/A
8:35 pm 20:35 Sunny 78 25.7 67 19.6 69 69 SE 9 15 29.89 1012 10 16 N/A
8:55 pm 20:55 Sunny 77 25.1 67 19.4 71 71 SE 10 17 29.89 1012 10 16 N/A
9:15 pm 21:15 Clear 76 24.5 65 18.2 68 68 SE 10 17 29.89 1012 10 16 N/A
9:35 pm 21:35 Clear 75 24 65 18.5 71 71 SE 10 17 29.91 1013 10 16 N/A
9:55 pm 21:55 Clear 74 23.3 65 18.5 75 75 SE 10 17 29.91 1013 10 16 N/A
10:15 pm 22:15 Clear 74 23.1 65 18.1 74 74 SSE 9 15 29.93 1013 10 16 N/A
10:35 pm 22:35 Clear 73 22.5 65 18.1 76 76 SE 8 13 29.93 1014 10 16 N/A
10:55 pm 22:55 Clear 72 22.1 65 18.1 78 78 SE 8 13 29.93 1014 10 16 N/A
11:15 pm 23:15 Clear 71 21.7 64 18 80 80 SSE 7 11 29.94 1014 10 16 N/A
11:35 pm 23:35 Clear 70 21 65 18.1 84 84 SSE 7 11 29.94 1014 10 16 N/A
11:55 pm 23:55 Clear 70 20.9 64 18 84 84 SSE 8 13 29.94 1014 10 16 N/A

Powered by AerisWeather